Location: Northam
(31.6525°S, 116.6655°E)
Time: 18:35:35
(UTC+08:00)

AAUSAT CUBESAT 2 - Pass Details

Date: 29 July 2021
Orbit: 572 x 587 km, 97.5° (Epoch: 18 September)

Event Time Altitude Azimuth Distance (km) Brightness Sun altitude
Rises 18:16:25 0° 185° (S) 2,850 ? -9.0°
Reaches altitude 10° 18:18:56 10° 199° (SSW) 1,940 ? -9.5°
Maximum altitude 18:22:16 23° 251° (WSW) 1,274 ? -10.1°
Drops below altitude 10° 18:25:34 10° 304° (NW) 1,918 ? -10.8°
Sets 18:28:03 0° 318° (NW) 2,808 ? -11.3°
